www.pogodaiklimat.ru

Погода и климат >> Архив погоды >> Мексика >> Сан-Кристобаль-де-лас-Касас


ПОГОДА в Сан-Кристобаль-де-лас-Касасе

  • Прогноз погоды в Сан-Кристобаль-де-лас-Касасе
  • Монитор погоды в Сан-Кристобаль-де-лас-Касасе

АРХИВ ПОГОДЫ в Сан-Кристобаль-де-лас-Касасе

Время (UTC), дата Ветер
(напр.,м/с)
 
Видим.   Явления Облачность Т
(С)
Тd
(С)
f
(%)
Тe
(С)
Тes
(С)
Комфортность P
(гПа)
Po
(гПа)
Тmin
(С)
Tmax
(С)
R
(мм)
R24
(мм)
S
(см)
09 19.03 штиль 0 3000 м 10/10 180 м
[St]
+13.0 +11.6 91 +12 +12 1014.4 794.3
12 19.03 СЗ 1 5000 м ясно +12.0 +10.6 91 +12 +12 1016.2 794.8 +11.0 +24.8
15 19.03 СВ 1 10 км 4/4 450 м
[St]
+16.6 +13.0 79 +17 +24 1018.7 796.6
18 19.03 ЮЗ 3 10 км 5/5 750 м
[Sc]
+21.4 +15.5 69 +25 +33 комфорт 1017.1 796.4 +10.8 +23.0
21 19.03 З 3 8000 м 9/9 540 м
[Cu med, cong]
+18.8 +14.5 76 +20 +21 1013.8 794.9
00 20.03 С 2 7000 м 9/9 330 м
[Cu med, cong]
+16.6 +14.0 85 +17 +17 1012.6 794.8 +10.8 +23.0
03 20.03 С 1 3000 м 10/10 150 м
[Frnb]
+14.2 +12.9 92 +14 +14 1014.6 796.5
06 20.03 С 1 3000 м ясно +13.0 +12.2 95 +13 +13 1016.0 796.5 +23.0
09 20.03 штиль 0 3000 м ясно +11.6 +11.1 97 +11 +11 1015.5 794.9
12 20.03 С 1 6000 м ясно +11.6 +11.3 98 +11 +11 1017.4 795.4 +9.6 +23.0
15 20.03 С 1 10 км 4/4 240 м
[St]
+15.5 +13.5 88 +16 +23 1019.7 797.0
18 20.03 ЮЗ 5 10 км 5/5 90 м
[St]
+20.7 +20.1 96 +25 +31 комфорт 1017.6 796.4 +10.6 +23.0
21 20.03 ЮЗ 3 10 км 8/8 450 м
[Cu med, cong]
+20.0 +13.4 66 +22 +24 комфорт 1016.3 795.8
00 21.03 СВ 3 10 км 3/3 540 м
[St]
+17.1 +12.7 75 +17 +17 1012.4 794.7 +10.6 +23.3
03 21.03 СВ 2 3000 м ясно +14.0 +12.7 92 +13 +13 1014.7 796.8
06 21.03 СВ 1 3000 м 3/3 210 м
[St]
+12.5 +10.9 90 +12 +12 1016.8 797.3 +23.3
09 21.03 СВ 1 3000 м ясно +11.7 +10.3 91 +11 +11 1016.7 795.8
12 21.03 В 1 5000 м ясно +10.5 +9.6 94 +10 +10 1019.1 796.4 +9.5 +23.3
15 21.03 ЮЗ 2 10 км ясно +15.7 +12.2 80 +16 +25 1020.9 797.5
18 21.03 Ю 2 10 км 8/8 210 м
[St]
+19.4 +17.3 88 +22 +26 комфорт 1018.8 796.9 +9.5 +20.2
21 21.03 С 2 10 км 4/4 870 м
[St]
+19.8 +12.7 64 +22 +29 комфорт 1015.4 795.4
00 22.03 С 2 10 км 8/8 480 м
[Cu hum]
+16.8 +12.9 78 +17 +17 1013.5 795.1 +9.5 +21.6
03 22.03 В 1 3000 м 8/8 210 м
[St]
+14.2 +12.2 88 +15 +15 1015.4 796.9
06 22.03 ЮВ 2 3000 м 10/10 <50 м
[Frnb]
+13.2 +12.5 96 +12 +12 1017.1 797.2 +21.6
09 22.03 С 1 3000 м 8/8 60 м
[St]
+12.6 +12.3 98 +12 +12 796.1
12 22.03 штиль 0 3000 м 10/10 120 м
[St]
+12.0 +11.0 94 +11 +11 1018.4 796.4 +9.8 +21.6
15 22.03 В 2 10 км 8/8 300 м
[St]
+14.2 +11.8 85 +14 +16 1020.4 797.8
18 22.03 В 2 10 км ясно +21.6 +19.9 90 +27 +48 душно 1018.0 796.9 +9.8 +22.2
21 22.03 СВ 2 10 км 8/8 120 м
[St]
+17.6 +16.7 94 +18 +20 1014.6 795.2
00 23.03 СВ 2 10 км 3/3 60 м
[St]
+16.8 +16.5 98 +17 +17 1013.4 795.2 +9.8 +23.6
03 23.03 штиль 0 3000 м ясно +14.0 +13.7 98 +14 +14 1015.4 797.0
06 23.03 штиль 0 3000 м ясно +12.2 +11.9 98 +12 +12 1016.9 797.1 +23.6
09 23.03 штиль 0 3000 м ясно +10.8 +10.4 97 +10 +10 1016.4 795.5
12 23.03 штиль 0 5000 м ясно +8.6 +8.4 99 +8 +8 1019.2 796.2 +7.5 +23.6
15 23.03 штиль 0 10 км ясно +15.6 +14.6 94 +15 +28 опасность
простуды
1021.6 797.6
18 23.03 СЗ 2 10 км 9/9 150 м
[St]
+21.6 +20.5 93 +27 +29 душно 1019.4 797.3 +7.5 +23.2
21 23.03 С 1 10 км 6/6 800 м
[Cu med, cong]
+19.4 +12.9 66 +22 +27 комфорт 1015.3 795.6
00 24.03 СВ 2 10 км {морось} 5/5 240 м
[Frnb]
+16.3 +14.2 87 +16 +16 1014.2 796.0 +7.5 +24.0 2
03 24.03 В 1 3000 м ясно +13.4 +12.1 92 +14 +14 1015.7 797.6
06 24.03 штиль 0 3000 м ясно +11.2 +10.5 95 +10 +10 1017.6 797.5 +24.0
09 24.03 штиль 0 3000 м ясно +8.6 +8.2 97 +8 +8 1018.3 796.2
12 24.03 штиль 0 10 км ясно +6.2 +6.0 99 +5 +5 1021.3 796.8 +5.4 +24.0
15 24.03 штиль 0 10 км ясно +15.0 +9.2 68 +15 +28 опасность
простуды
1023.4 797.8
18 24.03 В 3 10 км ясно +20.2 +10.2 53 +22 +39 комфорт 1021.2 797.4 +5.4 +21.2
21 24.03 ЮВ 3 10 км ясно +21.4 +16.9 76 +25 +35 комфорт 1016.6 795.9
00 25.03 С 5 10 км 1/1 180 м
[St]
+18.7 +17.2 91 +19 +19 1013.8 795.8 +5.4 +23.0
03 25.03 СВ 1 3000 м ясно +15.0 +14.7 98 +15 +15 1014.9 797.5
06 25.03 В 1 3000 м 3/3 30 м
[St]
+11.8 +11.5 98 +12 +12 1016.5 797.5 +23.0
09 25.03 штиль 0 3000 м ясно +8.2 +7.8 97 +7 +7 1016.9 795.9
12 25.03 штиль 0 5000 м ясно +6.4 +6.0 97 +5 +5 1019.7 795.9 +4.7 +23.0
15 25.03 В 1 10 км ясно +13.6 +11.9 89 +14 +25 опасность
простуды
1022.0 796.7
18 25.03 СВ 3 10 км ясно +21.2 +19.8 92 +26 +43 душно 1019.8 796.2 +4.7 +21.9
21 25.03 СВ 4 10 км ясно +21.0 +14.8 68 +24 +32 комфорт 1014.9 794.5
00 26.03 СВ 3 10 км 3/3 500 м
[St]
+17.2 +13.3 78 +17 +17 1012.6 794.6 +4.7 +22.6
03 26.03 СВ 2 3000 м 4/4 300 м
[St]
+13.4 +11.0 85 +13 +13 1014.8 797.1

 

Местоположение метеостанции Сан-Кристобаль-де-лас-Касас (Мексика): широта 16.75 долгота -92.63 высота над уровнем моря 2276 м.

В архиве по умолчанию представлена погода в Сан-Кристобаль-де-лас-Касасе за последнюю неделю. Архивные данные за месяц целиком и за предыдущие месяцы, начиная с января 2011 года, Вы можете получить, выбрав интересующий диапазон дат из раскрывающегося списка и нажав кнопку "Ввод!".


*Определитесь, кто Вы:
робот инопланетянин человек

Внимание! Время в таблицах - всемирное. Для получения местного времени необходимо прибавить поправку, которая равна -6 ч.

Смотрите также архив погоды в соседних городах и на ближайших метеорологических станциях:

Погода в Тустла-Гутьерресе (Мексика) (53 км)
Погода в Комитане (Мексика) (77 км)
Погода в Вильяэрмосе (Мексика) (140 км)
Погода в Арриаге (Мексика) (147 км)
Погода в Уэуэтенанго (Гватемала) (202 км)
Погода в Тапачуле (Мексика) (208 км)
Погода в Коацакоалькосе (Мексика) (243 км)
Погода в Салина-Крусе (Мексика) (280 км)
Погода во Флоресе (Гватемала) (293 км)
Погода в Гватемале (Гватемала) (331 км)

Пояснения к столбцам:

Ветер - указаны скорость ветра в м/с - средняя за 10 мин, порывы в срок и между сроками (в фигурных скобках) и направление, откуда дует ветер: С - северный, СВ - северо-восточный, В - восточный, ЮВ - юго-восточный, Ю - южный, ЮЗ - юго-западный, З - западный, СЗ - северо-западный.
Видимость - горизонтальная дальность видимости в метрах или километрах. При видимости от 1 до 10 км при отсутствии осадков обычно наблюдается дымка, при ухудшении видимости до 1 км и менее - туман. В сухую погоду видимость может ухудшаться дымом, пылью или мглою.
Явления - указаны атмосферные явления, наблюдавшиеся в срок или в последний час перед сроком; фигурными скобками обозначены явления, наблюдавшиеся между сроками (за 1-3 часа до срока); квадратными скобками обозначены град или гололедные отложения с указанием их диаметра в мм.
Облачность - указаны через наклонную черту общая и нижняя облачность в баллах и высота нижней границы облаков в метрах; квадратными скобками обозначены формы облаков: Ci - перистые, Cs - перисто-слоистые, Cc - перисто-кучевые, Ac - высококучевые, As - высокослоистые, Sc - слоисто-кучевые, Ns - слоисто-дождевые, Cu - кучевые, Cb - кучево-дождевые. Подробнее классификацию облаков см. в Атласе облаков (PDF).
T - Температура воздуха - температура, измеренная на высоте 2 м над землей.
Td - Температура точки росы - температура, при понижении до которой содержащийся в воздухе водяной пар достигнет насыщения.
f - Относительная влажность воздуха - влажноcть воздуха, измеренная на высоте 2 м над землей.
Te - Эффективная температура - температура, которую ощущает одетый по сезону человек в тени. Характеристика душности погоды. При расчете учитывается влияние влажности воздуха и скорости ветра на теплоощущения человека.
Tes - Эффективная температура на солнце - температура, которую ощущает человек, с поправкой на солнечный нагрев. Характеристика знойности погоды. Зависит от высоты солнца над горизонтом, облачности и скорости ветра. Ночью, в пасмурную погоду, а также при ветре 12 м/с и более поправка равна нулю.
P - Атмосферное давление - приведенное к уровню моря атмосферное давление.
Po - Атмосферное давление - измеренное на уровне метеостанции атмосферное давление.
Tmin - Минимальная температура - минимум температуры воздуха на высоте 2 м над землей.
Tmax - Максимальная температура - максимум температуры воздуха на высоте 2 м над землей.
R - Количество осадков - Количество выпавших осадков за период времени, мм. При наведении курсора мыши на число - период времени, за который выпало указанное количество осадков.
R24 - Количество осадков - Количество выпавших осадков за 24 часа, мм.
S - Снежный покров - Высота снежного покрова, см. При наведении курсора мыши на число - состояние снежного покрова и степень покрытия местности в баллах.